User: anonymous   Login
Location: Goheenville
(40.9070°N, 79.3720°W)
Time: 19:26:06
(UTC-04:00)
Language:

Cosmos 1727 Rocket - Orbit

View from above orbital plane
View from above orbital plane
View from above satellite
View from above satellite

Ground track
Ground track

The orbit data is extracted from the following two-line orbital elements,

1 16511U 86008B   18142.57735779 -.00000036 +00000-0 -52778-4 0  9996
2 16511 082.9419 328.2252 0025295 056.5098 001.6016 13.75822190622685
Epoch (UTC): 22 May 2018 13:51:23
Eccentricity: 0.0025295
inclination: 82.9419°
perigee height: 960 km
apogee height: 997 km
right ascension of ascending node: 328.2252°
argument of perigee: 56.5098°
revolutions per day: 13.75822190
mean anomaly at epoch: 1.6016°
orbit number at epoch: 62268

The dashed part of the orbit path shows where the satellite is in the earth's shadow,  

DLR